{"data":{"norad_id":58646,"epoch":"2026-05-25T03:37:50.358720Z","epoch_age_seconds":68770,"freshness":"FRESH","line1":"1 58646U 23205B   26145.15127730  .00005339  00000+0  20603-3 0  9998","line2":"2 58646  97.3451 166.8341 0009029  75.0183 285.2055 15.26671901133993","mean_motion":15.26671901,"eccentricity":0.0009029,"inclination_deg":97.3451,"raan_deg":166.8341,"arg_perigee_deg":75.0183,"mean_anomaly_deg":285.2055,"bstar":0.00020603,"rev_number":13399,"period_min":94.322820709333,"perigee_km":479.57219761303,"apogee_km":491.96704018544,"semimajor_km":6863.9066188992,"source":"CELESTRAK","updated_at":"2026-05-25T13:38:12.257517Z"}}